Simultaneous Nadir Overpasses (SNOs) Predictions

Prediction of SNOs over PacNW region [( 10.00, 139.50) to ( 22.70, 165.60)] between AQUA and NPP Satellites:

Table of predicted SNOs over PacNW region for the next 30.0 days since TLE Epoch: 6/10/2015
Index Date (AQUA) Time (AQUA) AQUA Lat,Lon Date (NPP) Time (NPP) NPP Lat,Lon Distance(km) Time Diff (sec)
1 06/15/2015 02:41:45 17.59, 160.97 06/15/2015 02:39:40 17.31, 159.76 131.98 125
2 06/23/2015 03:29:47 12.87, 149.67 06/23/2015 03:29:00 12.58, 148.17 166.21 47
3 07/01/2015 02:41:17 17.05, 161.14 07/01/2015 02:39:21 16.77, 159.87 138.63 116




NCC Satellite Simultaneous Nadir Overpasses (SNOs) Prediction Service
